Rochelle, IL

12:16 AM CDT on August 21, 2017 (GMT -0500)
Rochelle

Weather History for KRPJ - March, 2012

Change the Weather History Date:

Thursday, March 8, 2012

  Actual Average (KRFD) Record (KRFD)
Temperature  
Mean Temperature 40 °F -  
Max Temperature 48 °F 40 °F 76 °F (2000)
Min Temperature 32 °F 22 °F -6 °F (1943)
Degree Days  
Heating Degree Days 25    
Moisture  
Dew Point 29 °F    
Average Humidity 74    
Maximum Humidity 95    
Minimum Humidity 47    
Precipitation  
Precipitation 0.01 in - - ()
Sea Level Pressure  
Sea Level Pressure 30.09 in    
Wind  
Wind Speed 18 mph (WNW)    
Max Wind Speed 28 mph    
Max Gust Speed 36 mph    
Visibility 9 miles    
Events Rain    
Averages and records for this station are not official NWS values.
T = Trace of Precipitation, MM = Missing Value Source: NWS Daily Summary

Daily Weather History Graph

Daily Weather History Graph

Search for Another Location

Airport or City:

Trip Planner

Search our weather history database for the weather conditions in past years. The results will help you decide how hot, cold, wet, or windy it might be!

Date:

Astronomy

Mar. 08, 2012 Rise Set
Actual Time 6:19 AM CST 5:55 PM CST
Civil Twilight 5:51 AM CST 6:23 PM CST
Nautical Twilight 5:19 AM CST 6:55 PM CST
Astronomical Twilight 4:46 AM CST 7:28 PM CST
Moon 6:44 PM CST (3/8) 6:01 AM CST (3/8)
Length of Visible Light 12h 31m
Length of Day
11h 36m
Full, 100% of the Moon is Illuminated
Mar 8
Full
Mar 14
Last Quarter
Mar 22
New
Mar 30
First Quarter
Apr 6
Full

Hourly Weather History & Observations

Time (CST) Temp. Windchill Dew Point Humidity Pressure Visibility Wind Dir Wind Speed Gust Speed Precip Events Conditions
12:15 AM 48.2 °F - 46.6 °F 94% 29.84 in 5.0 mi WNW 20.7 mph - N/A Rain Rain
12:35 AM 45.5 °F 38.9 °F 43.9 °F 94% 29.85 in 5.0 mi WNW 15.0 mph - 0.03 in Rain Rain
1:15 AM 42.6 °F 34.9 °F 41.2 °F 95% 29.86 in 10.0 mi West 16.1 mph - N/A   Light Drizzle
1:55 AM 41.0 °F 33.1 °F 39.4 °F 94% 29.88 in 7.0 mi WNW 15.0 mph - 0.01 in Rain Light Rain
2:55 AM 39.2 °F 29.8 °F 37.0 °F 92% 29.91 in 7.0 mi WNW 18.4 mph 23.0 mph N/A   Overcast
3:15 AM 38.7 °F 29.1 °F 36.3 °F 91% 29.90 in 7.0 mi WNW 18.4 mph - N/A   Overcast
3:35 AM 38.3 °F 29.3 °F 36.1 °F 92% 29.90 in 7.0 mi NW 16.1 mph 20.7 mph N/A   Overcast
3:55 AM 37.8 °F 29.0 °F 35.6 °F 92% 29.92 in 7.0 mi NW 15.0 mph 18.4 mph N/A   Overcast
4:15 AM 37.4 °F 27.2 °F 35.6 °F 93% 29.94 in 5.0 mi WNW 19.6 mph 26.5 mph N/A   Overcast
4:35 AM 36.9 °F 27.1 °F 34.5 °F 91% 29.95 in 7.0 mi NW 17.3 mph 24.2 mph N/A   Overcast
4:55 AM 36.3 °F 27.1 °F 33.8 °F 91% 29.96 in 7.0 mi NW 15.0 mph 24.2 mph N/A   Overcast
5:15 AM 36.1 °F 26.5 °F 33.6 °F 91% 29.97 in 10.0 mi WNW 16.1 mph 23.0 mph N/A   Overcast
5:35 AM 35.6 °F 24.2 °F 33.1 °F 91% 30.00 in 10.0 mi WNW 21.9 mph 25.3 mph N/A   Overcast
5:55 AM 34.9 °F 23.9 °F 32.0 °F 89% 30.02 in 10.0 mi WNW 19.6 mph 26.5 mph N/A   Overcast
6:15 AM 34.7 °F 23.4 °F 31.6 °F 89% 30.02 in 10.0 mi WNW 20.7 mph 27.6 mph N/A   Overcast
6:35 AM 34.2 °F 24.0 °F 31.6 °F 90% 30.03 in 10.0 mi WNW 16.1 mph 23.0 mph N/A   Overcast
6:55 AM 33.8 °F 23.5 °F 31.1 °F 90% 30.03 in 10.0 mi WNW 16.1 mph 25.3 mph N/A   Overcast
7:15 AM 33.4 °F 22.7 °F 30.2 °F 88% 30.04 in 10.0 mi WNW 17.3 mph 25.3 mph N/A   Overcast
7:35 AM 33.3 °F 22.1 °F 29.7 °F 87% 30.04 in 10.0 mi WNW 18.4 mph 25.3 mph N/A   Mostly Cloudy
7:55 AM 33.3 °F 21.8 °F 29.8 °F 87% 30.06 in 10.0 mi WNW 19.6 mph 25.3 mph N/A   Scattered Clouds
8:15 AM 33.8 °F 23.2 °F 29.7 °F 85% 30.06 in 10.0 mi NW 17.3 mph 25.3 mph N/A   Scattered Clouds
8:35 AM 34.3 °F 22.9 °F 29.7 °F 83% 30.05 in 10.0 mi NW 20.7 mph 25.3 mph N/A   Scattered Clouds
8:55 AM 34.9 °F 23.9 °F 29.8 °F 82% 30.07 in 10.0 mi WNW 19.6 mph 26.5 mph N/A   Scattered Clouds
9:15 AM 36.0 °F 24.7 °F 29.5 °F 77% 30.08 in 10.0 mi WNW 21.9 mph - N/A   Clear
9:35 AM 36.7 °F 26.3 °F 29.8 °F 76% 30.09 in 10.0 mi WNW 19.6 mph 27.6 mph N/A   Clear
9:55 AM 36.9 °F 26.8 °F 29.7 °F 75% 30.10 in 10.0 mi NW 18.4 mph 25.3 mph N/A   Clear
10:35 AM 37.8 °F 27.7 °F 29.1 °F 71% 30.14 in 10.0 mi WNW 19.6 mph 26.5 mph N/A   Scattered Clouds
10:55 AM 38.8 °F 29.1 °F 29.3 °F 69% 30.15 in 10.0 mi WNW 19.6 mph 27.6 mph N/A   Scattered Clouds
11:15 AM 37.8 °F 28.0 °F 27.1 °F 66% 30.15 in 10.0 mi WNW 18.4 mph 25.3 mph N/A   Scattered Clouds
11:35 AM 38.8 °F 30.0 °F 27.0 °F 62% 30.15 in 10.0 mi WNW 16.1 mph 26.5 mph N/A   Clear
11:55 AM 40.1 °F 29.0 °F 26.8 °F 59% 30.15 in 10.0 mi WNW 27.6 mph 32.2 mph N/A   Clear
12:15 PM 40.6 °F 31.2 °F 25.9 °F 56% 30.15 in 10.0 mi WNW 20.7 mph 27.6 mph N/A   Clear
12:35 PM 41.2 °F 31.9 °F 25.2 °F 53% 30.14 in 10.0 mi NW 20.7 mph 33.4 mph N/A   Clear
12:55 PM 42.1 °F 32.6 °F 24.8 °F 50% 30.14 in 10.0 mi WNW 23.0 mph 29.9 mph N/A   Clear
1:15 PM 42.1 °F 32.6 °F 25.2 °F 51% 30.14 in 10.0 mi WNW 23.0 mph 28.8 mph N/A   Clear
1:35 PM 41.9 °F 31.9 °F 22.8 °F 47% 30.14 in 10.0 mi NW 25.3 mph 34.5 mph N/A   Clear
1:55 PM 41.2 °F 32.1 °F 24.8 °F 52% 30.15 in 10.0 mi WNW 19.6 mph 35.7 mph N/A   Scattered Clouds
2:15 PM 41.9 °F 31.9 °F 24.1 °F 49% 30.16 in 10.0 mi WNW 25.3 mph 34.5 mph N/A   Scattered Clouds
2:35 PM 41.4 °F 32.4 °F 24.6 °F 51% 30.16 in 10.0 mi NW 19.6 mph 28.8 mph N/A   Scattered Clouds
2:55 PM 41.9 °F 32.8 °F 25.7 °F 53% 30.16 in 10.0 mi WNW 20.7 mph 25.3 mph N/A   Scattered Clouds
3:15 PM 42.3 °F 32.6 °F 23.9 °F 48% 30.18 in 10.0 mi WNW 24.2 mph 31.1 mph N/A   Mostly Cloudy
3:35 PM 42.3 °F 33.8 °F 25.2 °F 51% 30.19 in 10.0 mi NW 18.4 mph 26.5 mph N/A   Mostly Cloudy
3:55 PM 41.4 °F 32.7 °F 24.6 °F 51% 30.18 in 10.0 mi NW 18.4 mph - N/A   Scattered Clouds
4:15 PM 40.6 °F 33.4 °F 23.5 °F 51% 30.18 in 10.0 mi WNW 12.7 mph - N/A   Clear
4:35 PM 40.3 °F 32.2 °F 23.7 °F 52% 30.18 in 10.0 mi WNW 15.0 mph 18.4 mph N/A   Clear
4:55 PM 39.7 °F 32.7 °F 22.6 °F 50% 30.19 in 10.0 mi WNW 11.5 mph - N/A   Clear
5:15 PM 39.2 °F 33.0 °F 25.0 °F 57% 30.20 in 10.0 mi West 9.2 mph - N/A   Clear
5:35 PM 37.8 °F 30.2 °F 25.9 °F 62% 30.21 in 10.0 mi West 11.5 mph - N/A   Clear
5:55 PM 36.9 °F 29.6 °F 25.7 °F 64% 30.21 in 10.0 mi West 10.4 mph - N/A   Clear
6:15 PM 35.6 °F 28.6 °F 26.1 °F 68% 30.22 in 10.0 mi West 9.2 mph - N/A   Clear
6:35 PM 33.1 °F 25.5 °F 27.5 °F 80% 30.22 in 10.0 mi WSW 9.2 mph - N/A   Clear
6:55 PM 33.1 °F 25.5 °F 27.3 °F 79% 30.22 in 10.0 mi WSW 9.2 mph - N/A   Clear
7:15 PM 33.4 °F 25.4 °F 27.3 °F 78% 30.22 in 10.0 mi WSW 10.4 mph - N/A   Clear
7:35 PM 32.2 °F 24.4 °F 27.3 °F 82% 30.22 in 10.0 mi WSW 9.2 mph - N/A   Clear
7:55 PM 32.2 °F 23.8 °F 27.5 °F 83% 30.22 in 10.0 mi WSW 10.4 mph - N/A   Clear
8:15 PM 34.0 °F 26.0 °F 26.6 °F 74% 30.23 in 10.0 mi West 10.4 mph - N/A   Clear
8:35 PM 33.3 °F 25.7 °F 26.6 °F 77% 30.24 in 10.0 mi West 9.2 mph - N/A   Clear
8:55 PM 32.9 °F 25.3 °F 27.0 °F 79% 30.24 in 10.0 mi West 9.2 mph - N/A   Clear
9:15 PM 33.6 °F 26.2 °F 26.6 °F 75% 30.24 in 10.0 mi West 9.2 mph - N/A   Clear
9:35 PM 34.3 °F 25.5 °F 26.4 °F 73% 30.24 in 10.0 mi West 12.7 mph - N/A   Clear
9:55 PM 33.8 °F 25.3 °F 27.0 °F 76% 30.22 in 10.0 mi West 11.5 mph - N/A   Clear
10:15 PM 33.6 °F 25.0 °F 27.1 °F 77% 30.22 in 10.0 mi WSW 11.5 mph - N/A   Clear
10:35 PM 32.0 °F 23.0 °F 27.5 °F 83% 30.21 in 10.0 mi SW 11.5 mph - N/A   Clear
10:55 PM 32.0 °F 23.0 °F 27.5 °F 83% 30.21 in 10.0 mi SW 11.5 mph - N/A   Clear
11:15 PM 32.0 °F 22.1 °F 27.7 °F 84% 30.21 in 10.0 mi SW 13.8 mph - N/A   Clear
11:35 PM 32.2 °F 21.8 °F 27.7 °F 83% 30.21 in 10.0 mi WSW 15.0 mph - N/A   Clear
11:55 PM 32.0 °F 22.1 °F 27.7 °F 84% 30.21 in 10.0 mi WSW 13.8 mph - N/A   Clear